User: anonymous   Login
Location: Borkenes
(68.7830°N, 16.1830°E)
Time: 21:49:05
(UTC+01:00)
Language:

Oscar 11 - Orbit

View from above orbital plane
View from above orbital plane
View from above satellite
View from above satellite

Ground track
Ground track

The orbit data is extracted from the following two-line orbital elements,

1 14781U 84021B   19341.80991735  .00000065  00000-0  14008-4 0  9994
2 14781  97.5999 358.2807 0009902 111.1164 249.1110 14.83125807924270
Epoch (UTC): 07 December 2019 19:26:16
Eccentricity: 0.0009902
inclination: 97.5999°
perigee height: 612 km
apogee height: 626 km
right ascension of ascending node: 358.2807°
argument of perigee: 111.1164°
revolutions per day: 14.83125807
mean anomaly at epoch: 249.1110°
orbit number at epoch: 92427

The dashed part of the orbit path shows where the satellite is in the earth's shadow,  

DLR